�������l�o���
Date,Time,MP-1(��Sv/h),MP-2(��Sv/h),MP-3(��Sv/h),MP-4(��Sv/h),MP-5(��Sv/h),MP-6(��Sv/h),MP-7(��Sv/h),MP-8(��Sv/h),����,����(m/s),���J
2017/08/20,00:00,0.897,1.402,0.936,1.689,1.152,0.502,0.913,0.848,�k,3.0,�L
2017/08/20,00:10,0.897,1.399,0.935,1.687,1.151,0.502,0.913,0.848,�k,4.3,�L
2017/08/20,00:20,0.897,1.398,0.930,1.684,1.148,0.500,0.912,0.847,�k,4.8,�L
2017/08/20,00:30,0.892,1.396,0.929,1.680,1.144,0.498,0.911,0.845,�k�k��,4.1,�L
2017/08/20,00:40,0.892,1.397,0.930,1.679,1.144,0.497,0.910,0.847,�k,3.9,�L
2017/08/20,00:50,0.894,1.398,0.932,1.684,1.144,0.498,0.910,0.846,�k,3.0,�L
2017/08/20,01:00,0.896,1.398,0.931,1.683,1.144,0.497,0.910,0.846,�k,2.6,�L
2017/08/20,01:10,0.894,1.402,0.934,1.682,1.145,0.498,0.911,0.847,�k,2.9,�L
2017/08/20,01:20,0.894,1.401,0.934,1.686,1.146,0.498,0.908,0.846,�k�k��,1.9,�L
2017/08/20,01:30,0.894,1.401,0.934,1.685,1.145,0.498,0.910,0.846,�k,3.1,�L
2017/08/20,01:40,0.893,1.400,0.931,1.686,1.144,0.499,0.911,0.845,�k�k��,3.4,�L
2017/08/20,01:50,0.894,1.400,0.933,1.681,1.144,0.497,0.909,0.844,�k�k��,2.8,�L
2017/08/20,02:00,0.893,1.399,0.931,1.681,1.143,0.497,0.909,0.845,�k�k��,2.5,�L
2017/08/20,02:10,0.895,1.400,0.931,1.680,1.143,0.497,0.908,0.843,�k�k��,2.9,�L
2017/08/20,02:20,0.895,1.400,0.933,1.681,1.143,0.499,0.909,0.846,�k�k��,3.3,�L
2017/08/20,02:30,0.894,1.398,0.931,1.682,1.143,0.497,0.909,0.843,�k�k��,1.9,�L
2017/08/20,02:40,0.897,1.402,0.934,1.684,1.143,0.500,0.910,0.846,�k�k��,2.9,�L
2017/08/20,02:50,0.897,1.401,0.932,1.687,1.144,0.498,0.911,0.843,�k�k��,3.0,�L
2017/08/20,03:00,0.896,1.402,0.932,1.684,1.143,0.499,0.910,0.846,�k��,4.0,�L
2017/08/20,03:10,0.897,1.406,0.934,1.687,1.146,0.498,0.910,0.846,�k��,3.5,�L
2017/08/20,03:20,0.897,1.404,0.932,1.686,1.145,0.500,0.911,0.846,�k�k��,3.5,�L
2017/08/20,03:30,0.899,1.407,0.935,1.690,1.144,0.501,0.910,0.847,�k��,3.4,�L
2017/08/20,03:40,0.900,1.405,0.934,1.691,1.146,0.500,0.913,0.846,�k��,3.8,�L
2017/08/20,03:50,0.899,1.410,0.934,1.689,1.148,0.499,0.912,0.846,�k�k��,4.6,�L
2017/08/20,04:00,0.900,1.406,0.935,1.690,1.148,0.500,0.912,0.846,�k�k��,4.6,�L
2017/08/20,04:10,0.900,1.408,0.937,1.688,1.151,0.501,0.911,0.846,�k�k��,4.0,�L
2017/08/20,04:20,0.900,1.407,0.936,1.688,1.146,0.500,0.912,0.846,�k�k��,3.6,�L
2017/08/20,04:30,0.901,1.409,0.935,1.691,1.151,0.502,0.914,0.848,�k�k��,3.9,�L
2017/08/20,04:40,0.902,1.410,0.937,1.692,1.152,0.502,0.914,0.848,�k�k��,3.4,�L
2017/08/20,04:50,0.901,1.408,0.937,1.692,1.151,0.501,0.915,0.850,�k��,3.1,�L
2017/08/20,05:00,0.901,1.408,0.938,1.694,1.150,0.501,0.913,0.849,�k�k��,2.6,�L
2017/08/20,05:10,0.901,1.409,0.939,1.692,1.149,0.501,0.912,0.849,�k�k��,2.6,�L
2017/08/20,05:20,0.901,1.409,0.939,1.694,1.149,0.502,0.912,0.850,�k�k��,2.5,�L
2017/08/20,05:30,0.900,1.409,0.938,1.692,1.149,0.502,0.912,0.848,�k�k��,3.6,�L
2017/08/20,05:40,0.901,1.406,0.938,1.691,1.151,0.500,0.913,0.849,�k�k��,3.7,�L
2017/08/20,05:50,0.901,1.406,0.935,1.690,1.150,0.502,0.912,0.849,�k�k��,3.6,�L
2017/08/20,06:00,0.900,1.406,0.937,1.691,1.149,0.502,0.912,0.849,�k�k��,3.3,�L
2017/08/20,06:10,0.900,1.407,0.937,1.689,1.150,0.501,0.912,0.848,�k�k��,3.7,�L
2017/08/20,06:20,0.897,1.405,0.935,1.688,1.149,0.501,0.912,0.847,�k�k��,3.0,�L
2017/08/20,06:30,0.896,1.401,0.932,1.689,1.150,0.502,0.912,0.847,�k�k��,2.8,�L
2017/08/20,06:40,0.897,1.402,0.933,1.685,1.147,0.501,0.911,0.845,�k�k��,3.3,�L
2017/08/20,06:50,0.894,1.400,0.932,1.687,1.147,0.502,0.911,0.847,�k�k��,3.2,�L
2017/08/20,07:00,0.896,1.403,0.934,1.687,1.146,0.500,0.912,0.848,�k,2.6,�L
2017/08/20,07:10,0.894,1.402,0.934,1.687,1.146,0.500,0.912,0.845,�k�k��,2.9,�L
2017/08/20,07:20,0.895,1.401,0.934,1.687,1.145,0.500,0.912,0.845,�k,3.2,�L
2017/08/20,07:30,0.894,1.396,0.933,1.687,1.145,0.500,0.911,0.846,�k,3.1,�L
2017/08/20,07:40,0.893,1.398,0.932,1.686,1.146,0.499,0.912,0.848,�k,3.6,�L
2017/08/20,07:50,0.893,1.400,0.933,1.688,1.147,0.499,0.911,0.846,�k,3.6,�L
2017/08/20,08:00,0.893,1.402,0.933,1.687,1.146,0.501,0.912,0.845,�k,3.3,�L
2017/08/20,08:10,0.892,1.399,0.935,1.688,1.146,0.501,0.910,0.845,�k�k��,3.1,�L
2017/08/20,08:20,0.895,1.402,0.933,1.688,1.146,0.502,0.911,0.847,�k�k��,3.5,�L
2017/08/20,08:30,0.895,1.398,0.933,1.687,1.148,0.499,0.912,0.846,�k�k��,3.5,�L
2017/08/20,08:40,0.894,1.401,0.932,1.687,1.144,0.500,0.912,0.846,�k�k��,3.5,�L
2017/08/20,08:50,0.893,1.400,0.931,1.687,1.149,0.501,0.911,0.847,�k�k��,2.6,�L
2017/08/20,09:00,0.890,1.398,0.934,1.688,1.146,0.501,0.912,0.848,�k�k��,2.9,�L
2017/08/20,09:10,0.892,1.397,0.932,1.688,1.146,0.501,0.911,0.847,�k,3.4,�L
2017/08/20,09:20,0.893,1.394,0.931,1.689,1.148,0.501,0.913,0.846,�k,3.1,�L
2017/08/20,09:30,0.895,1.393,0.932,1.684,1.147,0.500,0.913,0.845,�k�k��,2.5,�L
2017/08/20,09:40,0.896,1.395,0.931,1.683,1.147,0.501,0.914,0.847,�k�k��,2.9,�L
2017/08/20,09:50,0.895,1.397,0.934,1.688,1.149,0.500,0.913,0.846,�k�k��,2.6,�L
2017/08/20,10:00,0.897,1.400,0.933,1.689,1.149,0.500,0.914,0.844,�k,2.3,�L
2017/08/20,10:10,0.897,1.400,0.934,1.692,1.149,0.501,0.915,0.846,�k�k��,3.0,�L
2017/08/20,10:20,0.899,1.404,0.936,1.689,1.153,0.501,0.915,0.847,�k�k��,3.0,�L
2017/08/20,10:30,0.900,1.406,0.937,1.693,1.150,0.500,0.915,0.847,�k�k��,2.6,�L
2017/08/20,10:40,0.901,1.404,0.939,1.697,1.150,0.502,0.915,0.849,�k�k��,2.9,�L
2017/08/20,10:50,0.902,1.408,0.940,1.696,1.155,0.502,0.914,0.847,�k�k��,3.4,�L
2017/08/20,11:00,0.904,1.411,0.938,1.697,1.154,0.504,0.914,0.847,�k�k��,3.2,�L
2017/08/20,11:10,0.903,1.410,0.940,1.697,1.156,0.503,0.916,0.847,�k�k��,3.5,�L
2017/08/20,11:20,0.905,1.411,0.941,1.699,1.157,0.502,0.916,0.846,�k�k��,4.3,�L
2017/08/20,11:30,0.904,1.411,0.941,1.701,1.158,0.503,0.916,0.849,�k�k��,3.8,�L
2017/08/20,11:40,0.904,1.413,0.941,1.702,1.158,0.503,0.918,0.848,�k�k��,3.3,�L
2017/08/20,11:50,0.906,1.413,0.940,1.702,1.157,0.502,0.917,0.847,�k�k��,3.6,�L
2017/08/20,12:00,0.907,1.415,0.943,1.706,1.158,0.502,0.918,0.846,�k,3.3,�L
2017/08/20,12:10,0.907,1.414,0.939,1.702,1.156,0.503,0.917,0.848,�k�k��,3.1,�L
2017/08/20,12:20,0.909,1.412,0.940,1.701,1.158,0.502,0.917,0.847,�k,3.8,�L
2017/08/20,12:30,0.907,1.411,0.939,1.703,1.156,0.501,0.916,0.849,�k,4.0,�L
2017/08/20,12:40,0.908,1.412,0.937,1.702,1.156,0.502,0.917,0.850,�k�k��,4.3,�L
2017/08/20,12:50,0.908,1.408,0.937,1.701,1.158,0.502,0.918,0.850,�k�k��,4.4,�L
2017/08/20,13:00,0.906,1.410,0.936,1.702,1.158,0.503,0.918,0.848,�k�k��,3.6,�L
2017/08/20,13:10,0.908,1.414,0.939,1.702,1.157,0.502,0.919,0.850,�k�k��,4.0,�L
2017/08/20,13:20,0.907,1.412,0.940,1.706,1.158,0.502,0.917,0.849,�k�k��,3.4,�L
2017/08/20,13:30,0.909,1.412,0.940,1.704,1.159,0.503,0.917,0.850,�k,3.4,�L
2017/08/20,13:40,0.907,1.414,0.940,1.704,1.160,0.503,0.920,0.851,�k�k��,3.1,�L
2017/08/20,13:50,0.908,1.411,0.937,1.704,1.158,0.502,0.917,0.851,�k�k��,3.0,�L
2017/08/20,14:00,0.908,1.413,0.938,1.702,1.157,0.502,0.920,0.851,�k�k��,3.0,�L
2017/08/20,14:10,0.907,1.412,0.939,1.706,1.158,0.502,0.918,0.852,�k�k��,3.0,�L
2017/08/20,14:20,0.908,1.408,0.936,1.702,1.156,0.502,0.918,0.852,�k�k��,2.8,�L
2017/08/20,14:30,0.908,1.408,0.935,1.702,1.152,0.502,0.918,0.852,�k�k��,3.4,�L
2017/08/20,14:40,0.908,1.409,0.938,1.702,1.153,0.503,0.918,0.852,�k�k��,3.4,�L
2017/08/20,14:50,0.908,1.411,0.939,1.701,1.152,0.501,0.920,0.853,�k�k��,3.5,��
2017/08/20,15:00,0.907,1.411,0.938,1.700,1.155,0.501,0.921,0.852,�k�k��,3.1,��
2017/08/20,15:10,0.907,1.412,0.939,1.703,1.156,0.502,0.917,0.851,�k��,3.2,��
2017/08/20,15:20,0.907,1.411,0.939,1.704,1.155,0.503,0.919,0.852,���k��,4.0,�L
2017/08/20,15:30,0.909,1.411,0.942,1.704,1.154,0.502,0.921,0.852,��,3.1,�L
2017/08/20,15:40,0.908,1.414,0.942,1.703,1.154,0.503,0.917,0.854,��,3.7,�L
2017/08/20,15:50,0.909,1.415,0.942,1.706,1.157,0.504,0.920,0.853,��,3.7,��
2017/08/20,16:00,0.908,1.414,0.941,1.707,1.155,0.502,0.920,0.852,���k��,3.4,��
2017/08/20,16:10,0.908,1.414,0.943,1.705,1.158,0.501,0.920,0.851,��,3.6,��
2017/08/20,16:20,0.910,1.415,0.941,1.705,1.156,0.502,0.921,0.851,���k��,3.0,��
2017/08/20,16:30,0.911,1.416,0.943,1.706,1.156,0.505,0.918,0.853,���k��,2.8,��
2017/08/20,16:40,0.912,1.417,0.941,1.705,1.158,0.504,0.919,0.853,���k��,2.3,��
2017/08/20,16:50,0.912,1.417,0.943,1.706,1.162,0.503,0.920,0.852,���k��,2.9,��
2017/08/20,17:00,0.912,1.419,0.944,1.709,1.161,0.504,0.921,0.852,��,2.6,��
2017/08/20,17:10,0.911,1.419,0.943,1.705,1.158,0.504,0.921,0.854,���k��,2.3,��
2017/08/20,17:20,0.911,1.415,0.944,1.704,1.159,0.502,0.921,0.853,���k��,2.8,��
2017/08/20,17:30,0.910,1.417,0.946,1.707,1.161,0.504,0.921,0.853,���k��,2.0,�L
2017/08/20,17:40,0.910,1.422,0.944,1.708,1.162,0.503,0.919,0.854,��,3.0,�L
2017/08/20,17:50,0.911,1.423,0.945,1.708,1.160,0.502,0.921,0.853,��,3.4,�L
2017/08/20,18:00,0.912,1.422,0.944,1.710,1.159,0.503,0.919,0.851,��,3.0,�L
2017/08/20,18:10,0.910,1.422,0.945,1.709,1.162,0.504,0.921,0.855,���k��,2.2,�L
2017/08/20,18:20,0.911,1.423,0.947,1.710,1.161,0.503,0.920,0.855,��,2.6,��
2017/08/20,18:30,0.910,1.424,0.944,1.710,1.161,0.503,0.922,0.853,���k��,2.0,�L
2017/08/20,18:40,0.913,1.425,0.946,1.711,1.161,0.503,0.921,0.856,���k��,2.2,�L
2017/08/20,18:50,0.912,1.425,0.947,1.707,1.161,0.504,0.922,0.855,���k��,1.9,�L
2017/08/20,19:00,0.911,1.424,0.948,1.714,1.161,0.503,0.922,0.855,��,2.0,��
2017/08/20,19:10,0.914,1.423,0.947,1.712,1.162,0.507,0.923,0.855,���k��,1.1,��
2017/08/20,19:20,0.911,1.425,0.946,1.714,1.162,0.506,0.923,0.855,��,1.1,��
2017/08/20,19:30,0.914,1.427,0.947,1.711,1.164,0.505,0.921,0.855,��,1.5,��
2017/08/20,19:40,0.913,1.426,0.946,1.712,1.161,0.504,0.921,0.855,��,1.4,��
2017/08/20,19:50,0.916,1.425,0.947,1.714,1.162,0.505,0.923,0.854,�k��,1.4,��
2017/08/20,20:00,0.913,1.424,0.948,1.713,1.163,0.505,0.923,0.854,�k�k��,1.4,��
2017/08/20,20:10,0.917,1.426,0.949,1.713,1.164,0.506,0.923,0.856,�k�k��,1.2,��
2017/08/20,20:20,0.913,1.427,0.947,1.715,1.163,0.506,0.923,0.855,�k��,1.2,��
2017/08/20,20:30,0.913,1.423,0.948,1.713,1.164,0.505,0.922,0.856,���k��,1.2,��
2017/08/20,20:40,0.914,1.424,0.947,1.714,1.163,0.506,0.924,0.856,�k��,1.7,��
2017/08/20,20:50,0.915,1.426,0.947,1.715,1.163,0.506,0.921,0.856,�k��,1.5,��
2017/08/20,21:00,0.914,1.425,0.948,1.716,1.164,0.505,0.926,0.856,�k�k��,1.4,��
2017/08/20,21:10,0.914,1.426,0.947,1.716,1.163,0.506,0.924,0.856,�k�k��,2.0,��
2017/08/20,21:20,0.914,1.428,0.948,1.713,1.164,0.504,0.922,0.856,�k�k��,2.3,��
2017/08/20,21:30,0.916,1.428,0.949,1.713,1.165,0.506,0.921,0.854,�k��,2.5,�L
2017/08/20,21:40,0.916,1.427,0.949,1.713,1.166,0.505,0.921,0.855,���k��,2.8,��
2017/08/20,21:50,0.914,1.428,0.949,1.712,1.165,0.505,0.921,0.854,���k��,3.0,��
2017/08/20,22:00,0.914,1.427,0.949,1.713,1.167,0.505,0.921,0.855,��,3.3,�L
2017/08/20,22:10,0.915,1.428,0.949,1.715,1.163,0.503,0.921,0.855,��,2.0,�L
2017/08/20,22:20,0.914,1.427,0.950,1.710,1.163,0.504,0.920,0.856,���k��,1.7,�L
2017/08/20,22:30,0.915,1.427,0.950,1.717,1.165,0.505,0.922,0.855,-,CALM,�L
2017/08/20,22:40,0.914,1.426,0.948,1.715,1.162,0.505,0.921,0.856,-,CALM,�L
2017/08/20,22:50,0.914,1.427,0.950,1.717,1.166,0.506,0.921,0.854,��,0.6,�L
2017/08/20,23:00,0.915,1.425,0.949,1.711,1.166,0.506,0.922,0.857,�쐼,0.6,�L
2017/08/20,23:10,0.915,1.425,0.947,1.706,1.165,0.505,0.923,0.855,�쓌,1.1,��
2017/08/20,23:20,0.913,1.425,0.948,1.706,1.164,0.505,0.922,0.855,�쓌,0.9,��
2017/08/20,23:30,0.915,1.424,0.945,1.705,1.165,0.506,0.923,0.855,�쓌,1.1,��
2017/08/20,23:40,0.916,1.422,0.947,1.707,1.165,0.505,0.922,0.856,-,CALM,��
2017/08/20,23:50,0.914,1.426,0.947,1.708,1.167,0.505,0.921,0.856,-,CALM,��
